Home   Weather   Paterson   Past weeks
Flag for USA

Past Weather in Paterson, New Jersey, USA — Yesterday and Last 2 Weeks

Now
55 °F

Mostly cloudy.


Feels Like: 55 °F
Forecast: 60 / 51 °F
Wind: No wind

Location: Essex County Airport

Current Time: Oct 22, 2019 at 7:47:26 am

Latest Report: Oct 22, 2019 at 7:08 am


Visibility: 10 mi

Pressure: 30.11 "Hg

Humidity: 74%

Dew Point: 47 °F

Location of PatersonLocation

Past Weather in Paterson — Graph

°F

Paterson Temperature Yesterday

Maximum temperature yesterday: 69 °F (at 3:53 pm)
Minimum temperature yesterday: 49 °F (at 6:53 am)
Average temperature yesterday: 56 °F

High & Low Weather Summary for the Past Weeks

 TemperatureHumidityPressure
High76 °F (Oct 7, 12:53 pm)97% (Oct 16, 8:53 pm)30.33 "Hg (Oct 16, 8:53 pm)
Low38 °F (Oct 19, 5:53 am)25% (Oct 10, 8:53 pm)29.20 "Hg (Oct 16, 9:53 pm)
Average58 °F68%30.01 "Hg
* Reported Oct 7 5:53 am — Oct 22 5:53 am, Paterson. Weather by CustomWeather, © 2019

Note: Actual official high and low records may vary slightly from our data, if they occured in-between our weather recording intervals... More about our weather records

Advertising

Paterson Weather History for the Previous 24 Hours

Scroll right to see more
 ConditionsComfort  
Time TempWeatherWind HumidityBarometerVisibility
5:53 am
Tue, Oct 22
54 °FOvercast.3 mph83%30.09 "Hg10 mi
4:53 am52 °FOvercast.No wind89%30.11 "Hg10 mi
3:53 am52 °FOvercast.3 mph89%30.11 "Hg10 mi
2:53 am50 °FPassing clouds.7 mph93%30.11 "Hg10 mi
1:53 am51 °FClear.No wind89%30.13 "Hg10 mi
12:53 am50 °FClear.No wind93%30.14 "Hg10 mi
11:53 pm
Mon, Oct 21
50 °FClear.No wind93%30.14 "Hg10 mi
10:53 pm51 °FClear.No wind89%30.14 "Hg10 mi
9:53 pm51 °FClear.3 mph89%30.14 "Hg10 mi
8:53 pm53 °FClear.No wind83%30.15 "Hg10 mi
7:53 pm55 °FClear.No wind74%30.12 "Hg10 mi
6:53 pm58 °FClear.No wind67%30.11 "Hg10 mi
5:53 pm64 °FSunny.No wind52%30.10 "Hg10 mi
4:53 pm69 °FSunny.3 mph42%30.09 "Hg10 mi
3:53 pm69 °FSunny.No wind42%30.08 "Hg10 mi
1:53 pm68 °FSunny.3 mph42%30.07 "Hg10 mi
12:53 pm65 °FSunny.6 mph54%30.09 "Hg10 mi
11:53 am63 °FSunny.6 mph56%30.10 "Hg10 mi
10:53 am60 °FSunny.8 mph65%30.10 "Hg10 mi
9:53 am56 °FSunny.3 mph75%30.10 "Hg10 mi
8:53 am53 °FSunny.3 mph86%30.10 "Hg9 mi
7:53 am50 °FSunny.3 mph89%30.08 "Hg7 mi
Weather by CustomWeather, © 2019

See weather overview